CW3467 Sant Marti de Canals ES current weather conditions

sailwx.info

Wind from 135

Air temperature 10.6° C
Dewpoint 10.4° C

Last reported at 2014-Nov-25 00:38 UTC.
Time now 2014-Nov-25 01:51 UTC

Location: N 42°14' E 000°59'.
View on Google Maps.

See reports from other nearby stations

  
Tides and Currents Weather Stations Pressure Air Temp Water Temp Dewpoint Dewpoint Depression Visibility Wind Speed Wind Dir Waves Ship Positions
date/time (UTC)wind fromknots sea level pressurealtimeterstation pressurevisibilityair tempwater tempwave heightnotes
2014-Nov-25 00:38 135 10.6
2014-Nov-25 00:23 135 10.6
2014-Nov-25 00:08 136 10.6
2014-Nov-24 23:53 136 10.6
2014-Nov-24 23:38 137 10.6
2014-Nov-24 23:23 137 10.6
2014-Nov-24 23:08 137 11.1
2014-Nov-24 22:53 137 11.1
2014-Nov-24 22:38 137 11.7
2014-Nov-24 22:23 114 11.7
2014-Nov-24 22:08 135 11.7
2014-Nov-24 21:53 134 11.7
2014-Nov-24 21:38 134 11.7
2014-Nov-24 21:23 134 11.7
2014-Nov-24 21:08 135 12.2
2014-Nov-24 20:53 096 12.2
2014-Nov-24 20:38 117 12.2
2014-Nov-24 20:23 117 12.2
2014-Nov-24 20:08 141 0 gusting 1 12.2
2014-Nov-24 19:53 111 12.8
2014-Nov-24 19:38 061 12.2
2014-Nov-24 19:23 030 12.2
2014-Nov-24 19:08 100 12.8
2014-Nov-24 18:53 100 12.8
2014-Nov-24 18:38 046 12.2
2014-Nov-24 18:23 132 12.2
2014-Nov-24 18:08 150 12.8
2014-Nov-24 17:53 049 0 gusting 2 12.8
2014-Nov-24 17:38 100 12.8
2014-Nov-24 17:23 109 13.3
2014-Nov-24 17:08 191 13.9
2014-Nov-24 16:53 117 13.9
2014-Nov-24 16:38 167 13.9
2014-Nov-24 16:23 226 13.9
2014-Nov-24 16:08 226 13.9
2014-Nov-24 15:53 226 13.9
2014-Nov-24 15:38 226 14.4
2014-Nov-24 15:23 226 14.4
2014-Nov-24 15:08 225 14.4
2014-Nov-24 14:53 225 15.0
2014-Nov-24 14:38 254 15.0
2014-Nov-24 14:23 252 15.0
2014-Nov-24 14:08 201 15.0
2014-Nov-24 13:53 200 15.0
2014-Nov-24 13:38 200 15.0
2014-Nov-24 13:23 200 15.6
2014-Nov-24 13:08 200 15.6
2014-Nov-24 12:54 211 15.6
2014-Nov-24 12:38 145 0 gusting 2 16.1
2014-Nov-24 12:23 249 16.1
2014-Nov-24 12:08 194 16.7
2014-Nov-24 11:53 232 0 gusting 3 16.1
2014-Nov-24 11:38 229 15.6
2014-Nov-24 11:23 221 14.4
2014-Nov-24 11:08 218 13.9
2014-Nov-24 10:53 224 13.9
2014-Nov-24 10:38 226 13.3
2014-Nov-24 10:22 224 13.3
2014-Nov-24 10:07 200 12.2
2014-Nov-24 09:52 169 11.1
2014-Nov-24 09:37 216 11.1
2014-Nov-24 09:22 126 10.6
2014-Nov-24 09:07 179 10.6
2014-Nov-24 08:52 174 10.6
2014-Nov-24 08:37 174 10.6
2014-Nov-24 08:22 135 10.6
2014-Nov-24 08:07 123 10.0
2014-Nov-24 07:52 119 10.0
2014-Nov-24 07:37 013 9.4
2014-Nov-24 07:22 167 9.4
2014-Nov-24 07:07 215 9.4
2014-Nov-24 06:52 038 9.4
2014-Nov-24 06:37 236 10.0
2014-Nov-24 06:22 332 10.0
2014-Nov-24 06:07 325 10.0
2014-Nov-24 05:52 135 10.6
2014-Nov-24 05:37 011 10.0
2014-Nov-24 05:22 110 10.0
2014-Nov-24 05:07 120 9.4
2014-Nov-24 04:52 354 9.4
2014-Nov-24 04:37 084 10.0
2014-Nov-24 04:22 093 9.4
2014-Nov-24 04:07 096 10.6
2014-Nov-24 03:52 125 1 gusting 4 10.6
2014-Nov-24 03:37 165 11.1
2014-Nov-24 03:22 277 11.1
2014-Nov-24 03:07 250 11.1
2014-Nov-24 02:52 091 1 gusting 3 11.1
2014-Nov-24 02:37 098 1 gusting 3 10.0
2014-Nov-24 02:22 135 4 gusting 6 9.4
2014-Nov-24 02:07 318 1 gusting 4 10.6
2014-Nov-24 01:52 353 10.6
2014-Nov-24 01:37 141 10.6
2014-Nov-24 01:22 198 11.1
2014-Nov-24 01:07 198 11.1
2014-Nov-24 00:52 077 10.6
2014-Nov-24 00:37 003 0 gusting 1 10.6
2014-Nov-24 00:22 201 11.1
2014-Nov-24 00:07 354 0 gusting 3 10.6
2014-Nov-23 23:52 142 1 gusting 4 11.1
2014-Nov-23 23:37 349 0 gusting 3 11.1
2014-Nov-23 23:22 015 0 gusting 1 10.6
2014-Nov-23 23:07 039 11.7
2014-Nov-23 22:52 113 1 gusting 3 11.1
2014-Nov-23 22:37 107 10.0
2014-Nov-23 22:21 101 10.0
2014-Nov-23 22:06 051 1 gusting 2 10.6
2014-Nov-23 21:51 036 0 gusting 2 10.6
2014-Nov-23 21:36 143 1 gusting 3 10.6
2014-Nov-23 21:21 256 11.1
2014-Nov-23 21:06 033 1 gusting 2 10.6
2014-Nov-23 20:51 344 10.6
2014-Nov-23 20:36 091 1 gusting 3 10.6
2014-Nov-23 20:21 125 2 gusting 4 11.1
2014-Nov-23 20:06 075 11.1
2014-Nov-23 19:51 085 11.7
2014-Nov-23 19:36 056 11.1
2014-Nov-23 19:21 094 11.7
2014-Nov-23 19:06 093 11.7
2014-Nov-23 18:51 089 12.2
2014-Nov-23 18:36 073 12.8
2014-Nov-23 18:21 070 12.8
2014-Nov-23 18:06 103 0 gusting 3 12.8
2014-Nov-23 17:51 128 13.3
2014-Nov-23 17:36 096 0 gusting 2 12.8
2014-Nov-23 17:21 131 13.9
2014-Nov-23 17:06 033 0 gusting 2 13.3
2014-Nov-23 16:51 225 13.9
2014-Nov-23 16:36 108 1 gusting 2 13.9
2014-Nov-23 16:21 046 13.9
2014-Nov-23 16:06 022 13.9
2014-Nov-23 15:51 027 14.4
2014-Nov-23 15:36 032 0 gusting 2 13.9
2014-Nov-23 15:21 311 0 gusting 2 14.4
2014-Nov-23 15:06 353 14.4
2014-Nov-23 14:51 160 14.4
2014-Nov-23 14:36 024 13.9
2014-Nov-23 14:21 148 2 gusting 4 13.9
2014-Nov-23 13:51 136 13.9
2014-Nov-23 13:36 224 14.4
2014-Nov-23 13:21 030 1 gusting 2 13.9
2014-Nov-23 13:06 337 13.3
2014-Nov-23 12:51 026 13.3
2014-Nov-23 12:36 049 13.3
2014-Nov-23 12:21 222 13.3
2014-Nov-23 12:06 225 13.3
2014-Nov-23 11:51 224 13.9
2014-Nov-23 11:36 136 13.9
2014-Nov-23 11:21 104 13.3
2014-Nov-23 11:06 332 13.9
2014-Nov-23 10:51 112 13.9
2014-Nov-23 10:36 112 13.3
2014-Nov-23 10:21 112 13.3
2014-Nov-23 10:06 333 12.8
2014-Nov-23 09:51 006 12.8
2014-Nov-23 09:36 100 0 gusting 2 12.2
2014-Nov-23 09:21 105 0 gusting 1 11.7
2014-Nov-23 09:06 036 11.7
2014-Nov-23 08:51 134 3 gusting 6 11.7
2014-Nov-23 08:36 355 0 gusting 6 12.2
2014-Nov-23 08:21 110 2 gusting 5 11.7
2014-Nov-23 08:06 148 2 gusting 4 11.1
2014-Nov-23 07:51 005 0 gusting 3 11.7
2014-Nov-23 07:36 345 11.7
2014-Nov-23 07:21 126 11.7
2014-Nov-23 07:06 101 0 gusting 1 11.1
2014-Nov-23 06:51 001 0 gusting 2 11.1
2014-Nov-23 06:36 215 11.1
2014-Nov-23 06:21 036 0 gusting 2 11.7
2014-Nov-23 06:06 121 0 gusting 1 12.2
2014-Nov-23 05:50 117 0 gusting 2 11.1
2014-Nov-23 05:35 139 0 gusting 2 11.1
2014-Nov-23 05:20 076 12.2
2014-Nov-23 05:05 037 12.2
2014-Nov-23 04:50 053 11.7
2014-Nov-23 04:35 139 11.7
2014-Nov-23 04:20 039 0 gusting 2 12.2
2014-Nov-23 04:05 084 0 gusting 0 11.7
2014-Nov-23 03:50 026 11.1
2014-Nov-23 03:35 263 12.2
2014-Nov-23 03:20 096 0 gusting 1 12.2
2014-Nov-23 03:05 097 0 gusting 2 11.7
2014-Nov-23 02:50 216 0 gusting 1 12.2
2014-Nov-23 02:35 212 12.8
2014-Nov-23 02:20 015 12.2
2014-Nov-23 02:05 355 12.2
2014-Nov-23 01:50 006 12.8
2014-Nov-23 01:35 038 0 gusting 1 11.7
2014-Nov-23 01:20 354 0 gusting 2 12.2
2014-Nov-23 01:05 098 1 gusting 4 12.2